2016-10-23 00:06:58 r, 14.98m,0000000091Hz,0000005123c,0000000.011s, 023.5C,00002195
2016-10-23 00:16:58 r, 15.09m,0000000082Hz,0000005659c,0000000.012s, 023.5C,00002195
2016-10-23 00:26:58 r, 14.95m,0000000093Hz,0000004997c,0000000.011s, 023.5C,00002195
2016-10-23 00:36:58 r, 15.84m,0000000041Hz,0000011299c,0000000.025s, 023.5C,00002195
2016-10-23 00:46:58 r, 15.74m,0000000045Hz,0000010271c,0000000.022s, 023.5C,00002195
2016-10-23 00:56:58 r, 15.71m,0000000047Hz,0000010014c,0000000.022s, 023.2C,00002195
2016-10-23 01:06:58 r, 15.59m,0000000052Hz,0000008992c,0000000.020s, 023.2C,00002195
2016-10-23 01:16:58 r, 15.47m,0000000057Hz,0000008004c,0000000.017s, 023.2C,00002195
2016-10-23 01:27:00 r, 15.45m,0000000058Hz,0000007930c,0000000.017s, 023.2C,00002195
2016-10-23 01:36:58 r, 15.45m,0000000059Hz,0000007890c,0000000.017s, 022.8C,00002195
2016-10-23 01:46:58 r, 15.47m,0000000057Hz,0000008013c,0000000.017s, 023.2C,00002195
2016-10-23 01:56:58 r, 15.41m,0000000060Hz,0000007593c,0000000.016s, 023.2C,00002195
2016-10-23 02:06:58 r, 15.35m,0000000063Hz,0000007221c,0000000.016s, 023.2C,00002195
2016-10-23 02:16:58 r, 15.36m,0000000064Hz,0000007256c,0000000.016s, 023.2C,00002195
2016-10-23 02:26:58 r, 15.38m,0000000063Hz,0000007394c,0000000.016s, 022.8C,00002195
2016-10-23 02:36:58 r, 15.40m,0000000062Hz,0000007524c,0000000.016s, 022.8C,00002195
2016-10-23 02:46:58 r, 15.36m,0000000063Hz,0000007277c,0000000.016s, 022.5C,00002195
2016-10-23 02:56:58 r, 15.38m,0000000062Hz,0000007360c,0000000.016s, 022.5C,00002195
2016-10-23 03:06:58 r, 15.35m,0000000063Hz,0000007211c,0000000.016s, 022.5C,00002195
2016-10-23 03:16:58 r, 15.37m,0000000063Hz,0000007328c,0000000.016s, 022.5C,00002195
2016-10-23 03:26:58 r, 15.36m,0000000063Hz,0000007248c,0000000.016s, 022.5C,00002195
2016-10-23 03:37:00 r, 15.43m,0000000060Hz,0000007737c,0000000.017s, 022.5C,00002195
2016-10-23 03:46:58 r, 15.37m,0000000063Hz,0000007312c,0000000.016s, 022.5C,00002195
2016-10-23 03:56:58 r, 15.29m,0000000067Hz,0000006796c,0000000.015s, 022.5C,00002195
2016-10-23 04:06:58 r, 15.26m,0000000069Hz,0000006643c,0000000.014s, 022.5C,00002195
2016-10-23 04:16:58 r, 15.37m,0000000063Hz,0000007346c,0000000.016s, 022.5C,00002195
2016-10-23 04:26:58 r, 15.43m,0000000060Hz,0000007758c,0000000.017s, 022.5C,00002195
2016-10-23 04:36:58 r, 15.37m,0000000063Hz,0000007299c,0000000.016s, 022.5C,00002195
2016-10-23 04:46:58 r, 15.48m,0000000057Hz,0000008082c,0000000.018s, 022.5C,00002195
2016-10-23 04:56:58 r, 15.34m,0000000065Hz,0000007106c,0000000.015s, 022.5C,00002195
2016-10-23 05:06:58 r, 15.40m,0000000061Hz,0000007499c,0000000.016s, 022.5C,00002195
2016-10-23 05:16:58 r, 15.54m,0000000053Hz,0000008636c,0000000.019s, 022.5C,00002195
2016-10-23 05:26:58 r, 15.53m,0000000055Hz,0000008495c,0000000.018s, 022.2C,00002195
2016-10-23 05:36:58 r, 15.60m,0000000050Hz,0000009114c,0000000.020s, 022.2C,00002195
2016-10-23 05:46:58 r, 15.75m,0000000045Hz,0000010451c,0000000.023s, 022.2C,00002195
2016-10-23 05:56:58 r, 15.94m,0000000037Hz,0000012366c,0000000.027s, 022.2C,00002195
2016-10-23 06:06:58 r, 15.97m,0000000036Hz,0000012741c,0000000.028s, 022.5C,00002195
2016-10-23 06:16:58 r, 16.25m,0000000028Hz,0000016550c,0000000.036s, 022.5C,00002195
2016-10-23 06:26:58 r, 16.51m,0000000023Hz,0000020922c,0000000.045s, 022.5C,00002195
2016-10-23 06:36:58 r, 15.99m,0000000036Hz,0000012983c,0000000.028s, 022.5C,00002195
2016-10-23 06:46:59 r, 15.98m,0000000036Hz,0000012858c,0000000.028s, 022.5C,00002195
2016-10-23 06:56:58 r, 16.53m,0000000021Hz,0000021322c,0000000.046s, 022.5C,00002195
2016-10-23 07:06:58 r, 15.90m,0000000039Hz,0000011941c,0000000.026s, 022.5C,00002195
2016-10-23 07:16:58 r, 15.33m,0000000065Hz,0000007103c,0000000.015s, 022.5C,00002195
2016-10-23 07:26:58 r, 14.30m,0000000170Hz,0000000000c,0000000.000s, 022.5C,00002195
2016-10-23 07:36:58 r, 12.54m,0000000863Hz,0000000000c,0000000.000s, 022.5C,00002195
2016-10-23 07:46:59 r, 10.17m,0000007579Hz,0000000000c,0000000.000s, 022.5C,00002195
2016-10-23 07:56:58 r, 08.65m,0000030957Hz,0000000000c,0000000.000s, 022.5C,00002195
2016-10-23 08:07:00 r, 07.91m,0000060725Hz,0000000000c,0000000.000s, 022.5C,00002195
2016-10-23 08:16:58 r, 07.15m,0000123086Hz,0000000000c,0000000.000s, 022.5C,00002195
2016-10-23 08:26:58 r, 07.23m,0000114489Hz,0000000000c,0000000.000s, 022.5C,00002195
2016-10-23 08:36:58 r, 00.00m,0000480051Hz,0000000000c,0000000.000s, 022.8C,00002195
2016-10-23 08:46:58 r, 00.00m,0000563784Hz,0000000000c,0000000.000s, 022.8C,00002195
2016-10-23 08:56:58 r, 00.00m,0000563711Hz,0000000000c,0000000.000s, 022.8C,00002195
2016-10-23 09:06:58 r, 00.00m,0000563859Hz,0000000000c,0000000.000s, 023.2C,00002195
2016-10-23 09:16:58 r, 00.00m,0000563799Hz,0000000000c,0000000.000s, 023.5C,00002195
2016-10-23 09:26:58 r, 00.00m,0000563891Hz,0000000000c,0000000.000s, 023.5C,00002195
2016-10-23 09:36:59 r, 00.00m,0000563988Hz,0000000000c,0000000.000s, 023.8C,00002195
2016-10-23 09:46:58 r, 00.00m,0000563946Hz,0000000000c,0000000.000s, 024.1C,00002195
2016-10-23 09:56:58 r, 00.00m,0000563927Hz,0000000000c,0000000.000s, 024.4C,00002195
2016-10-23 10:06:58 r, 00.00m,0000564019Hz,0000000000c,0000000.000s, 024.8C,00002195
2016-10-23 10:16:58 r, 00.00m,0000564021Hz,0000000000c,0000000.000s, 025.1C,00002195
2016-10-23 10:26:58 r, 00.00m,0000564135Hz,0000000000c,0000000.000s, 025.7C,00002195
2016-10-23 10:36:58 r, 00.00m,0000564205Hz,0000000000c,0000000.000s, 025.7C,00002195
2016-10-23 10:46:58 r, 00.00m,0000564248Hz,0000000000c,0000000.000s, 026.1C,00002195
2016-10-23 10:56:58 r, 00.00m,0000564296Hz,0000000000c,0000000.000s, 026.4C,00002195
2016-10-23 11:06:58 r, 00.00m,0000564282Hz,0000000000c,0000000.000s, 026.4C,00002195
2016-10-23 11:16:58 r, 00.00m,0000564273Hz,0000000000c,0000000.000s, 026.7C,00002195
2016-10-23 11:26:58 r, 00.00m,0000564299Hz,0000000000c,0000000.000s, 027.0C,00002195
2016-10-23 11:36:58 r, 00.00m,0000564427Hz,0000000000c,0000000.000s, 028.3C,00002195
2016-10-23 11:46:58 r, 00.00m,0000564442Hz,0000000000c,0000000.000s, 028.6C,00002195
2016-10-23 11:56:58 r, 00.00m,0000564658Hz,0000000000c,0000000.000s, 030.2C,00002195
2016-10-23 12:06:58 r, 00.00m,0000564749Hz,0000000000c,0000000.000s, 030.9C,00002195
2016-10-23 12:16:58 r, 00.00m,0000564680Hz,0000000000c,0000000.000s, 030.9C,00002195
2016-10-23 12:26:58 r, 00.00m,0000564646Hz,0000000000c,0000000.000s, 029.6C,00002195
2016-10-23 12:36:58 r, 00.00m,0000564451Hz,0000000000c,0000000.000s, 029.3C,00002195
2016-10-23 12:46:58 r, 00.00m,0000564395Hz,0000000000c,0000000.000s, 028.6C,00002195
2016-10-23 12:56:58 r, 00.00m,0000564652Hz,0000000000c,0000000.000s, 030.2C,00002195
2016-10-23 13:06:59 r, 00.00m,0000564804Hz,0000000000c,0000000.000s, 031.5C,00002195
2016-10-23 13:16:58 r, 00.00m,0000564774Hz,0000000000c,0000000.000s, 030.9C,00002195
2016-10-23 13:26:58 r, 00.00m,0000564771Hz,0000000000c,0000000.000s, 030.9C,00002195
2016-10-23 13:36:58 r, 00.00m,0000564724Hz,0000000000c,0000000.000s, 030.6C,00002195
2016-10-23 13:46:58 r, 00.00m,0000564545Hz,0000000000c,0000000.000s, 029.9C,00002195
2016-10-23 13:56:58 r, 00.00m,0000564417Hz,0000000000c,0000000.000s, 028.6C,00002195
2016-10-23 14:06:58 r, 00.00m,0000564664Hz,0000000000c,0000000.000s, 030.2C,00002195
2016-10-23 14:16:58 r, 00.00m,0000564608Hz,0000000000c,0000000.000s, 030.2C,00002195
2016-10-23 14:26:58 r, 00.00m,0000564692Hz,0000000000c,0000000.000s, 030.2C,00002195
2016-10-23 14:36:58 r, 00.00m,0000564691Hz,0000000000c,0000000.000s, 030.2C,00002195
2016-10-23 14:46:58 r, 00.00m,0000564760Hz,0000000000c,0000000.000s, 030.9C,00002195
2016-10-23 14:56:58 r, 00.00m,0000564861Hz,0000000000c,0000000.000s, 031.9C,00002195
2016-10-23 15:06:58 r, 00.00m,0000564695Hz,0000000000c,0000000.000s, 030.9C,00002195
2016-10-23 15:16:58 r, 00.00m,0000564767Hz,0000000000c,0000000.000s, 031.9C,00002195
2016-10-23 15:26:58 r, 00.00m,0000564569Hz,0000000000c,0000000.000s, 030.2C,00002195
2016-10-23 15:36:58 r, 00.00m,0000564643Hz,0000000000c,0000000.000s, 030.2C,00002195
2016-10-23 15:46:59 r, 00.00m,0000564537Hz,0000000000c,0000000.000s, 029.9C,00002195
2016-10-23 15:56:58 r, 00.00m,0000564445Hz,0000000000c,0000000.000s, 029.0C,00002195
2016-10-23 16:06:58 r, 00.00m,0000564330Hz,0000000000c,0000000.000s, 028.3C,00002195
2016-10-23 16:16:58 r, 00.00m,0000564319Hz,0000000000c,0000000.000s, 027.7C,00002195
2016-10-23 16:26:58 r, 00.00m,0000564284Hz,0000000000c,0000000.000s, 027.3C,00002195
2016-10-23 16:36:58 r, 00.00m,0000564240Hz,0000000000c,0000000.000s, 026.7C,00002195
2016-10-23 16:46:58 r, 00.00m,0000564176Hz,0000000000c,0000000.000s, 026.4C,00002195
2016-10-23 16:56:58 r, 00.00m,0000564109Hz,0000000000c,0000000.000s, 026.4C,00002195
2016-10-23 17:06:58 r, 00.00m,0000564186Hz,0000000000c,0000000.000s, 026.4C,00002195
2016-10-23 17:16:58 r, 00.00m,0000564125Hz,0000000000c,0000000.000s, 026.1C,00002195
2016-10-23 17:26:58 r, 00.00m,0000564162Hz,0000000000c,0000000.000s, 026.1C,00002195
2016-10-23 17:36:58 r, 00.00m,0000488371Hz,0000000000c,0000000.000s, 026.1C,00002195
2016-10-23 17:46:58 r, 00.00m,0000403739Hz,0000000000c,0000000.000s, 025.7C,00002195
2016-10-23 17:56:58 r, 06.19m,0000297769Hz,0000000000c,0000000.000s, 025.7C,00002195
2016-10-23 18:06:58 r, 06.65m,0000194348Hz,0000000000c,0000000.000s, 025.7C,00002195
2016-10-23 18:16:59 r, 07.34m,0000103602Hz,0000000000c,0000000.000s, 025.4C,00002195
2016-10-23 18:26:58 r, 08.41m,0000038521Hz,0000000000c,0000000.000s, 024.8C,00002195
2016-10-23 18:36:58 r, 09.98m,0000009046Hz,0000000000c,0000000.000s, 024.8C,00002195
2016-10-23 18:46:58 r, 11.99m,0000001429Hz,0000000000c,0000000.000s, 024.4C,00002195
2016-10-23 18:56:58 r, 14.13m,0000000197Hz,0000000000c,0000000.000s, 024.4C,00002195
2016-10-23 19:06:58 r, 16.08m,0000000033Hz,0000014017c,0000000.030s, 024.1C,00002195
2016-10-23 19:16:59 r, 17.34m,0000000010Hz,0000044954c,0000000.098s, 023.8C,00002195
2016-10-23 19:26:58 r, 17.99m,0000000006Hz,0000082204c,0000000.178s, 023.8C,00002195
2016-10-23 19:36:58 r, 18.25m,0000000005Hz,0000103572c,0000000.225s, 023.5C,00002195
2016-10-23 19:46:58 r, 18.31m,0000000004Hz,0000109707c,0000000.238s, 023.5C,00002195
2016-10-23 19:56:59 r, 18.34m,0000000005Hz,0000112286c,0000000.244s, 023.2C,00002195
2016-10-23 20:06:58 r, 18.35m,0000000004Hz,0000113365c,0000000.246s, 023.2C,00002195
2016-10-23 20:16:58 r, 18.37m,0000000004Hz,0000115123c,0000000.250s, 022.8C,00002195
2016-10-23 20:26:59 r, 18.37m,0000000004Hz,0000115228c,0000000.250s, 022.8C,00002195
2016-10-23 20:36:58 r, 18.39m,0000000004Hz,0000116877c,0000000.254s, 022.5C,00002195
2016-10-23 20:46:59 r, 18.39m,0000000004Hz,0000116965c,0000000.254s, 022.5C,00002195
2016-10-23 20:56:58 r, 18.39m,0000000004Hz,0000116994c,0000000.254s, 022.2C,00002195
2016-10-23 21:07:01 r, 18.52m,0000000003Hz,0000132622c,0000000.288s, 022.2C,00002195
2016-10-23 21:16:58 r, 18.53m,0000000004Hz,0000133476c,0000000.290s, 022.2C,00002195
2016-10-23 21:26:58 r, 18.54m,0000000003Hz,0000134517c,0000000.292s, 021.9C,00002195
2016-10-23 21:36:58 r, 18.55m,0000000003Hz,0000135417c,0000000.294s, 021.9C,00002195
2016-10-23 21:46:58 r, 18.55m,0000000004Hz,0000136211c,0000000.296s, 021.5C,00002195
2016-10-23 21:56:58 r, 18.55m,0000000003Hz,0000135900c,0000000.295s, 021.5C,00002195
2016-10-23 22:06:58 r, 18.56m,0000000003Hz,0000138174c,0000000.300s, 021.5C,00002195
2016-10-23 22:16:58 r, 18.57m,0000000003Hz,0000139093c,0000000.302s, 021.2C,00002195
2016-10-23 22:26:58 r, 18.58m,0000000003Hz,0000139401c,0000000.303s, 021.2C,00002195
2016-10-23 22:36:58 r, 18.57m,0000000003Hz,0000140124c,0000000.304s, 020.9C,00002195
2016-10-23 22:47:01 r, 18.56m,0000000003Hz,0000138996c,0000000.302s, 020.9C,00002195
2016-10-23 22:56:59 r, 18.51m,0000000004Hz,0000132436c,0000000.287s, 020.6C,00002195
2016-10-23 23:06:58 r, 18.41m,0000000003Hz,0000120809c,0000000.262s, 020.6C,00002195
2016-10-23 23:16:58 r, 17.30m,0000000010Hz,0000043448c,0000000.094s, 020.6C,00002195
2016-10-23 23:26:58 r, 17.83m,0000000007Hz,0000071056c,0000000.154s, 020.9C,00002195
2016-10-23 23:36:58 r, 17.85m,0000000006Hz,0000071929c,0000000.156s, 020.9C,00002195
2016-10-23 23:46:58 r, 17.38m,0000000010Hz,0000046700c,0000000.101s, 020.9C,00002195
2016-10-23 23:56:58 r, 18.46m,0000000004Hz,0000125739c,0000000.273s, 020.9C,00002195
